Вернуться в каталог

FENGYUN 1C DEB

АктивенPO
NORAD 37717·DEBRIS·🇨🇳 China

Запущен May 10, 1999 с Taiyuan Satellite Launch Center

Loading…

Ближайшие Пролёты (ближайшие 24 часа)

TLE

СвежийSource: Space-Track

Эпоха: Sep 13, 2026, 05:41 UTC

1 37717U 99025EMJ 26256.23684294  .00028381  00000-0  15434-2 0  9990
2 37717  98.7478 252.7472 0034477 281.6415 141.8328 15.13925908935255

Отслеживайте FENGYUN 1C DEB в реальном времени с AllMySat

Download on the App Store